FW8877 Weather Reports


Display with metric or nautical units.
time (UTC)temp
F
wind
direction
speed
MPH
gust
MPH
rain 1hr
in
rain 24hr
in
rain mn
in
humidity
%
barometer
mb
20260505003047 73 255 0.0 3.0 0.00 0.00 0.00 22 1005.9
20260505001554 74 0 0.0 1.0 0.00 0.00 0.00 21 1005.9
20260505000103 74 199 0.0 4.0 0.00 0.00 0.00 21 1005.9
20260504234600 75 334 0.0 3.0 0.00 0.00 0.00 22 1006.0
20260504233045 75 268 1.0 4.0 0.00 0.00 0.00 21 1006.0
20260504231546 77 311 1.0 3.0 0.00 0.00 0.00 22 1006.1
20260504230046 78 304 1.0 3.0 0.00 0.00 0.00 19 1006.2
20260504224555 78 293 0.0 3.0 0.00 0.00 0.00 20 1006.4
20260504223045 77 0 0.0 3.0 0.00 0.00 0.00 18 1006.5
20260504221548 76 194 0.0 2.0 0.00 0.00 0.00 20 1006.7
20260504220049 77 279 0.0 5.0 0.00 0.00 0.00 20 1006.9
20260504214544 77 307 0.0 3.0 0.00 0.00 0.00 21 1007.2
20260504213102 77 142 0.0 3.0 0.00 0.00 0.00 20 1007.3
20260504211552 77 285 0.0 3.0 0.00 0.00 0.00 20 1007.5
20260504210052 77 323 1.0 5.0 0.00 0.00 0.00 23 1007.6
20260504204549 77 335 1.0 4.0 0.00 0.00 0.00 25 1007.8
20260504203059 76 299 1.0 4.0 0.00 0.00 0.00 23 1008.1
20260504201553 76 192 1.0 5.0 0.00 0.00 0.00 26 1008.3
20260504200046 75 316 1.0 5.0 0.00 0.00 0.00 25 1008.5
20260504194601 75 290 1.0 3.0 0.00 0.00 0.00 27 1008.8
20260504193058 74 0 1.0 3.0 0.00 0.00 0.00 28 1008.9
20260504191549 74 282 0.0 3.0 0.00 0.00 0.00 30 1009.1
20260504190055 73 266 1.0 3.0 0.00 0.00 0.00 32 1009.3
20260504184543 72 360 0.0 3.0 0.00 0.00 0.00 33 1009.4
20260504183050 73 285 0.0 1.0 0.00 0.00 0.00 32 1009.6
20260504181551 71 0 0.0 1.0 0.00 0.00 0.00 35 1009.6
20260504180051 69 162 0.0 3.0 0.00 0.00 0.00 34 1009.9
20260504174600 69 302 0.0 1.0 0.00 0.00 0.00 32 1010.1
20260504173100 69 287 0.0 2.0 0.00 0.00 0.00 33 1010.1
20260504171552 68 0 0.0 2.0 0.00 0.00 0.00 32 1010.1
20260504110107 45 0 0.0 0.0 0.00 0.00 0.00 57 1010.1
20260504090113 48 0 0.0 0.0 0.00 0.00 0.00 48 1009.8
20260504081542 54 0 0.0 1.0 0.00 0.00 0.00 39 1009.7
20260504044559 61 159 0.0 5.0 0.00 0.00 0.00 30 1010.6
20260504043050 61 155 1.0 4.0 0.00 0.00 0.00 29 1010.6
20260504041550 61 140 0.0 2.0 0.00 0.00 0.00 28 1010.5
20260504040052 61 0 0.0 2.0 0.00 0.00 0.00 29 1010.5
20260504034552 61 129 0.0 2.0 0.00 0.00 0.00 29 1010.5
20260504033056 62 127 0.0 1.0 0.00 0.00 0.00 29 1010.5
20260504031550 63 137 0.0 3.0 0.00 0.00 0.00 28 1010.4
20260504030050 64 101 0.0 4.0 0.00 0.00 0.00 28 1010.3
20260504024547 65 140 1.0 4.0 0.00 0.00 0.00 27 1010.2
20260504023046 66 0 0.0 2.0 0.00 0.00 0.00 26 1010.2
20260504021551 67 0 0.0 4.0 0.00 0.00 0.00 25 1010.3
20260504020052 68 299 0.0 1.0 0.00 0.00 0.00 24 1010.3
20260504014551 69 0 0.0 2.0 0.00 0.00 0.00 21 1010.3
20260504013050 70 0 0.0 2.0 0.00 0.00 0.00 20 1010.5
20260504011550 71 0 0.0 1.0 0.00 0.00 0.00 19 1010.7
20260504010056 72 0 0.0 2.0 0.00 0.00 0.00 19 1010.8
20260504004544 72 0 0.0 3.0 0.00 0.00 0.00 19 1011.1